| time (UTC) | temp F | wind direction | speed MPH | gust MPH | rain 1hr in | rain 24hr in | rain mn in | humidity % | barometer mb |
| 20260831190044 | 85 | 101 | 1.0 | 4.0 | 0.00 | 0.01 | 0.00 | 72 | 1021.5 |
| 20260831184637 | 86 | 103 | 1.0 | 3.0 | 0.00 | 0.01 | 0.00 | 72 | 1021.7 |
| 20260831183036 | 85 | 291 | 1.0 | 5.0 | 0.00 | 0.01 | 0.00 | 72 | 1021.6 |
| 20260831181533 | 86 | 350 | 0.0 | 5.0 | 0.00 | 0.01 | 0.00 | 72 | 1021.7 |
| 20260831180032 | 86 | 128 | 0.0 | 4.0 | 0.00 | 0.01 | 0.00 | 72 | 1021.6 |
| 20260831174527 | 85 | 207 | 1.0 | 5.0 | 0.00 | 0.01 | 0.00 | 74 | 1021.8 |
| 20260831173025 | 86 | 84 | 1.0 | 4.0 | 0.00 | 0.01 | 0.00 | 72 | 1022.1 |
| 20260831171524 | 86 | 51 | 1.0 | 4.0 | 0.00 | 0.01 | 0.00 | 72 | 1022.2 |
| 20260831170024 | 85 | 108 | 0.0 | 5.0 | 0.00 | 0.01 | 0.00 | 74 | 1022.3 |
| 20260831164513 | 84 | 120 | 1.0 | 3.0 | 0.00 | 0.01 | 0.00 | 76 | 1022.2 |
| 20260831163010 | 82 | 8 | 0.0 | 5.0 | 0.00 | 0.01 | 0.00 | 78 | 1022.5 |
| 20260831161505 | 81 | 100 | 0.0 | 5.0 | 0.00 | 0.01 | 0.00 | 79 | 1022.6 |
| 20260831160001 | 81 | 111 | 1.0 | 4.0 | 0.00 | 0.01 | 0.00 | 80 | 1022.5 |
| 20260831154559 | 81 | 91 | 1.0 | 4.0 | 0.00 | 0.01 | 0.00 | 80 | 1022.5 |
| 20260831153055 | 80 | 80 | 0.0 | 5.0 | 0.00 | 0.01 | 0.00 | 81 | 1022.5 |
| 20260831151552 | 80 | 71 | 2.0 | 7.0 | 0.00 | 0.01 | 0.00 | 81 | 1022.4 |
| 20260831144550 | 79 | 77 | 2.0 | 6.0 | 0.00 | 0.01 | 0.00 | 83 | 1022.4 |
| 20260831143047 | 79 | 136 | 3.0 | 10.0 | 0.00 | 0.01 | 0.00 | 82 | 1022.4 |
| 20260831141547 | 79 | 38 | 4.0 | 9.0 | 0.00 | 0.01 | 0.00 | 82 | 1022.4 |
| 20260831140040 | 80 | 33 | 3.0 | 8.0 | 0.00 | 0.01 | 0.00 | 82 | 1022.5 |
| 20260831134541 | 79 | 109 | 0.0 | 6.0 | 0.00 | 0.01 | 0.00 | 84 | 1022.5 |
| 20260831133037 | 78 | 86 | 1.0 | 8.0 | 0.00 | 0.01 | 0.00 | 86 | 1022.4 |
| 20260831131552 | 77 | 91 | 3.0 | 7.0 | 0.00 | 0.01 | 0.00 | 89 | 1022.4 |
| 20260831130022 | 76 | 71 | 0.0 | 3.0 | 0.00 | 0.01 | 0.00 | 92 | 1022.4 |
| 20260831124535 | 75 | 218 | 0.0 | 0.0 | 0.00 | 0.01 | 0.00 | 93 | 1022.3 |
| 20260831123010 | 74 | 245 | 0.0 | 1.0 | 0.00 | 0.01 | 0.00 | 93 | 1022.4 |
| 20260831121505 | 73 | 207 | 0.0 | 2.0 | 0.00 | 0.01 | 0.00 | 93 | 1022.3 |
| 20260831120101 | 73 | 10 | 0.0 | 0.0 | 0.00 | 0.01 | 0.00 | 95 | 1022.2 |
| 20260831114556 | 72 | 10 | 0.0 | 0.0 | 0.00 | 0.01 | 0.00 | 96 | 1022.0 |
| 20260831113053 | 71 | 9 | 0.0 | 1.0 | 0.00 | 0.01 | 0.00 | 95 | 1021.7 |
| 20260831111550 | 0 | 0.0 | 0.0 | 0.00 | 0.01 | 0.00 | 1021.7 | ||
| 20260831110045 | 0 | 0.0 | 0.0 | 0.00 | 0.01 | 0.00 | 1021.6 | ||
| 20260831104548 | 0 | 0.0 | 0.0 | 0.00 | 0.01 | 0.00 | 1021.3 | ||
| 20260831103037 | 0 | 0.0 | 0.0 | 0.00 | 0.01 | 0.00 | 1021.2 | ||
| 20260831101528 | 0 | 0.0 | 0.0 | 0.00 | 0.01 | 0.00 | 1021.3 | ||
| 20260831100026 | 0 | 0.0 | 0.0 | 0.00 | 0.01 | 0.00 | 1021.1 | ||
| 20260831094518 | 0 | 211 | 0.0 | 0.0 | 0.00 | 0.01 | 0.00 | 1021.2 | |
| 20260831093024 | 70 | 209 | 0.0 | 0.0 | 0.00 | 0.01 | 0.00 | 95 | 1021.1 |
| 20260831091513 | 71 | 209 | 0.0 | 0.0 | 0.00 | 0.01 | 0.00 | 95 | 1021.1 |
| 20260831090012 | 71 | 209 | 0.0 | 0.0 | 0.00 | 0.01 | 0.00 | 95 | 1021.0 |
| 20260831084512 | 71 | 209 | 0.0 | 1.0 | 0.00 | 0.01 | 0.00 | 95 | 1021.0 |
| 20260831083009 | 71 | 209 | 1.0 | 2.0 | 0.00 | 0.01 | 0.00 | 95 | 1021.0 |
| 20260831081505 | 71 | 212 | 0.0 | 0.0 | 0.00 | 0.01 | 0.00 | 95 | 1021.1 |
| 20260831080003 | 71 | 211 | 0.0 | 0.0 | 0.00 | 0.01 | 0.00 | 95 | 1021.1 |
| 20260831074501 | 70 | 212 | 0.0 | 0.0 | 0.00 | 0.01 | 0.00 | 95 | 1021.1 |
| 20260831073101 | 71 | 211 | 0.0 | 0.0 | 0.00 | 0.01 | 0.00 | 95 | 1021.0 |
| 20260831071558 | 71 | 211 | 0.0 | 0.0 | 0.00 | 0.01 | 0.00 | 95 | 1021.1 |
| 20260831070057 | 71 | 211 | 0.0 | 0.0 | 0.00 | 0.01 | 0.00 | 95 | 1021.1 |
| 20260831064552 | 71 | 211 | 0.0 | 1.0 | 0.00 | 0.01 | 0.00 | 95 | 1021.2 |
| 20260831063049 | 71 | 211 | 0.0 | 0.0 | 0.00 | 0.01 | 0.00 | 95 | 1021.1 |
| 20260831061550 | 71 | 211 | 0.0 | 1.0 | 0.00 | 0.01 | 0.00 | 95 | 1021.5 |
| 20260831060044 | 72 | 211 | 0.0 | 0.0 | 0.00 | 0.01 | 0.00 | 95 | 1021.5 |
| 20260831054541 | 72 | 211 | 0.0 | 1.0 | 0.00 | 0.01 | 0.00 | 94 | 1021.5 |
| 20260831053039 | 72 | 211 | 0.0 | 1.0 | 0.00 | 0.01 | 0.00 | 94 | 1021.5 |
| 20260831051536 | 72 | 211 | 0.0 | 0.0 | 0.00 | 0.01 | 0.00 | 94 | 1021.4 |
| 20260831050045 | 72 | 211 | 0.0 | 1.0 | 0.00 | 0.01 | 0.00 | 94 | 1021.5 |
| 20260831044530 | 73 | 211 | 0.0 | 0.0 | 0.00 | 0.01 | 0.00 | 94 | 1021.4 |
| 20260831043027 | 73 | 211 | 0.0 | 0.0 | 0.00 | 0.01 | 0.00 | 94 | 1021.6 |
| 20260831041524 | 73 | 211 | 0.0 | 0.0 | 0.00 | 0.01 | 0.00 | 94 | 1021.6 |
| 20260831040025 | 73 | 211 | 0.0 | 0.0 | 0.00 | 0.01 | 0.01 | 94 | 1021.7 |
| 20260831034517 | 74 | 211 | 0.0 | 0.0 | 0.00 | 0.01 | 0.01 | 93 | 1021.8 |
| 20260831033019 | 74 | 212 | 0.0 | 0.0 | 0.00 | 0.01 | 0.01 | 93 | 1021.7 |
| 20260831031523 | 74 | 211 | 0.0 | 0.0 | 0.00 | 0.01 | 0.01 | 93 | 1021.8 |
| 20260831030012 | 74 | 211 | 0.0 | 0.0 | 0.00 | 0.01 | 0.01 | 92 | 1021.9 |
| 20260831024517 | 75 | 211 | 0.0 | 0.0 | 0.00 | 0.01 | 0.01 | 92 | 1022.1 |
| 20260831023009 | 75 | 211 | 0.0 | 0.0 | 0.00 | 0.01 | 0.01 | 92 | 1022.1 |
| 20260831021506 | 75 | 211 | 0.0 | 1.0 | 0.00 | 0.01 | 0.01 | 91 | 1022.0 |
| 20260831020005 | 76 | 211 | 0.0 | 1.0 | 0.01 | 0.01 | 0.01 | 91 | 1022.1 |
| 20260831014611 | 76 | 211 | 0.0 | 1.0 | 0.01 | 0.01 | 0.01 | 89 | 1022.0 |
| 20260831013101 | 77 | 159 | 0.0 | 1.0 | 0.01 | 0.01 | 0.01 | 89 | 1022.0 |
| 20260831011610 | 78 | 313 | 0.0 | 1.0 | 0.01 | 0.01 | 0.01 | 89 | 1022.1 |
| 20260831010056 | 79 | 205 | 1.0 | 3.0 | 0.00 | 0.00 | 0.00 | 87 | 1021.9 |
| 20260831004553 | 79 | 210 | 0.0 | 0.0 | 0.00 | 0.00 | 0.00 | 87 | 1021.7 |
| 20260831003051 | 79 | 203 | 0.0 | 3.0 | 0.00 | 0.00 | 0.00 | 87 | 1021.7 |
| 20260831001554 | 79 | 195 | 1.0 | 3.0 | 0.00 | 0.00 | 0.00 | 86 | 1021.3 |
| 20260831000048 | 80 | 202 | 2.0 | 4.0 | 0.00 | 0.00 | 0.00 | 85 | 1021.4 |
| 20260830234606 | 80 | 207 | 0.0 | 2.0 | 0.00 | 0.00 | 0.00 | 84 | 1021.3 |
| 20260830233043 | 81 | 207 | 1.0 | 4.0 | 0.00 | 0.00 | 0.00 | 83 | 1021.2 |
| 20260830231544 | 82 | 217 | 0.0 | 2.0 | 0.00 | 0.00 | 0.00 | 81 | 1021.5 |
| 20260830230040 | 82 | 207 | 1.0 | 3.0 | 0.00 | 0.00 | 0.00 | 80 | 1021.6 |
| 20260830224541 | 83 | 173 | 1.0 | 4.0 | 0.00 | 0.00 | 0.00 | 78 | 1021.4 |
| 20260830223040 | 84 | 191 | 2.0 | 6.0 | 0.00 | 0.00 | 0.00 | 77 | 1021.2 |
| 20260830221533 | 84 | 210 | 3.0 | 7.0 | 0.00 | 0.00 | 0.00 | 77 | 1021.2 |
| 20260830220037 | 85 | 212 | 2.0 | 9.0 | 0.00 | 0.00 | 0.00 | 75 | 1021.2 |
| 20260830214529 | 85 | 228 | 3.0 | 8.0 | 0.00 | 0.00 | 0.00 | 69 | 1021.1 |
| 20260830213026 | 86 | 169 | 1.0 | 2.0 | 0.00 | 0.00 | 0.00 | 70 | 1020.9 |
| 20260830211525 | 86 | 165 | 1.0 | 4.0 | 0.00 | 0.00 | 0.00 | 72 | 1021.0 |
| 20260830210021 | 86 | 228 | 0.0 | 5.0 | 0.00 | 0.00 | 0.00 | 68 | 1021.1 |
| 20260830204521 | 88 | 135 | 1.0 | 7.0 | 0.00 | 0.00 | 0.00 | 68 | 1021.1 |
| 20260830203015 | 86 | 142 | 2.0 | 4.0 | 0.00 | 0.00 | 0.00 | 68 | 1021.1 |
| 20260830201538 | 86 | 210 | 2.0 | 9.0 | 0.00 | 0.00 | 0.00 | 69 | 1021.2 |
| 20260830200009 | 85 | 201 | 1.0 | 8.0 | 0.00 | 0.00 | 0.00 | 69 | 1021.4 |
| 20260830194506 | 85 | 214 | 2.0 | 11.0 | 0.00 | 0.00 | 0.00 | 70 | 1021.5 |
| 20260830193003 | 85 | 211 | 6.0 | 10.0 | 0.00 | 0.00 | 0.00 | 70 | 1021.9 |
| 20260830191601 | 86 | 209 | 4.0 | 10.0 | 0.00 | 0.00 | 0.00 | 69 | 1021.9 |